Voltar ao catálogo

KUIPER-00092

AtivoComunicaçõesLEO
NORAD 64837·PAYLOAD·🇺🇸 United States

Lançado Jul 16, 2025 de Cape Canaveral Space Force Station

Loading…

Próximas Passagens (próximas 24 horas)

TLE

AtualizadoSource: CelesTrak SupGP

Época: Sep 15, 2026, 00:33 UTC

1 64837C 25151X   26258.02324074  .00003437  00000+0  45006-3 0  2589
2 64837  51.8993 173.3734 0000901  92.9462 267.2450 14.79917933    15

Acompanhe KUIPER-00092 em tempo real com AllMySat

Download on the App Store